This is the latest recevied weather packets stored in our database for station/object DL8TF-13. If no packets are shown the sender has not sent any weather packets the latest 10 day(s).
| Time | Temp. | Humidity | Pressure | Rain* | Wind** | Luminosity | Snow |
|---|---|---|---|---|---|---|---|
| 1777750424 | 19.44° C | 38% | 984 hPa | - | - | - | - |
| 1777749823 | 20.56° C | 36% | 984 hPa | - | - | - | - |
| 1777749223 | 20.56° C | 36% | 984 hPa | - | - | - | - |
| 1777748623 | 20.56° C | 35% | 984 hPa | - | - | - | - |
| 1777748023 | 21.67° C | 34% | 984 hPa | - | - | - | - |
| 1777747423 | 22.22° C | 32% | 984 hPa | - | - | - | - |
| 1777746823 | 22.78° C | 31% | 984 hPa | - | - | - | - |
| 1777746223 | 23.33° C | 30% | 984 hPa | - | - | - | - |
| 1777745623 | 24.44° C | 29% | 984 hPa | - | - | - | - |
| 1777745023 | 25° C | 24% | 984 hPa | - | - | - | - |
| 1777744423 | 26.67° C | 22% | 984 hPa | - | - | - | - |
| 1777743823 | 27.22° C | 21% | 984 hPa | - | - | - | - |
| 1777743223 | 27.78° C | 21% | 984 hPa | - | - | - | - |
| 1777742623 | 28.33° C | 20% | 984 hPa | - | - | - | - |
| 1777742023 | 28.89° C | 20% | 984 hPa | - | - | - | - |
| 1777741423 | 28.89° C | 19% | 984 hPa | - | - | - | - |
| 1777740823 | 29.44° C | 17% | 984 hPa | - | - | - | - |
| 1777740222 | 29.44° C | 14% | 984 hPa | - | - | - | - |
| 1777739622 | 29.44° C | 13% | 984 hPa | - | - | - | - |
| 1777739022 | 29.44° C | 14% | 984 hPa | - | - | - | - |
| 1777738422 | 29.44° C | 15% | 985 hPa | - | - | - | - |
| 1777737822 | 29.44° C | 13% | 985 hPa | - | - | - | - |
| 1777737222 | 29.44° C | 14% | 985 hPa | - | - | - | - |
| 1777736622 | 30° C | 12% | 985 hPa | - | - | - | - |
| 1777736022 | 31.11° C | 12% | 985 hPa | - | - | - | - |
* Rain since midnight (hover to see other rain measurements)
** Current wind speed in m/s (hover to see current wind gust speed)